Weather History for KMCC - October, 2012

Change the Weather History Date:

Tuesday, October 23, 2012

  Actual Average (KMHR) Record (KMHR)
Temperature  
Mean Temperature 56 °F -  
Max Temperature 62 °F 69 °F 102 °F (2006)
Min Temperature 50 °F 45 °F 42 °F (2000)
Degree Days  
Heating Degree Days 9    
Growing Degree Days 6 (Base 50)    
Moisture  
Dew Point 44 °F    
Average Humidity 72    
Maximum Humidity 94    
Minimum Humidity 37    
Precipitation  
Precipitation 0.00 in - - ()
Sea Level Pressure  
Sea Level Pressure 30.02 in    
Wind  
Wind Speed 7 mph ()    
Max Wind Speed 15 mph    
Max Gust Speed 18 mph    
Visibility 9.7 miles    
Events Rain    
Averages and records for this station are not official NWS values.
T = Trace of Precipitation, MM = Missing Value Source: Averaged Metar Reports

Daily Weather History Graph

Daily Weather History Graph

Search for Another Location

Airport or City:

Trip Planner

Search our weather history database for the weather conditions in past years. The results will help you decide how hot, cold, wet, or windy it might be!

Date:

Astronomy

Oct. 23, 2012 Rise Set
Actual Time 7:23 AM PDT 6:15 PM PDT
Civil Twilight 6:56 AM PDT 6:42 PM PDT
Nautical Twilight 6:25 AM PDT 7:13 PM PDT
Astronomical Twilight 5:54 AM PDT 7:44 PM PDT
Moon 2:58 PM PDT (10/23) 1:24 AM PDT (10/23)
Length of Visible Light 11h 46m
Length of Day
10h 52m
Waxing Gibbous, 67% of the Moon is Illuminated
Oct 23
Waxing Gibbous
Oct 29
Full
Nov 6
Last Quarter
Nov 13
New
Nov 20
First Quarter

Hourly Weather History & Observations

Time (PDT) Temp. Dew Point Humidity Pressure Visibility Wind Dir Wind Speed Gust Speed Precip Events Conditions
12:10 AM 50.0 °F 48.2 °F 94% 29.94 in 2.0 mi SSW 15.0 mph 18.4 mph N/A Rain Light Rain
12:30 AM 51.8 °F 48.2 °F 88% 29.94 in 9.0 mi SSW 10.4 mph - N/A Rain Light Rain
12:50 AM 51.8 °F 48.2 °F 88% 29.95 in 10.0 mi SSW 9.2 mph - N/A   Mostly Cloudy
1:10 AM 51.8 °F 48.2 °F 88% 29.95 in 3.0 mi South 10.4 mph - N/A Rain Light Rain
1:30 AM 51.8 °F 48.2 °F 88% 29.96 in 10.0 mi South 5.8 mph - N/A   Overcast
1:50 AM 51.8 °F 48.2 °F 88% 29.96 in 10.0 mi South 10.4 mph 16.1 mph N/A   Overcast
2:10 AM 51.8 °F 48.2 °F 88% 29.96 in 10.0 mi South 8.1 mph - N/A   Overcast
2:30 AM 50.0 °F 48.2 °F 94% 29.97 in 10.0 mi SSE 6.9 mph - N/A Rain Light Rain
2:50 AM 50.0 °F 48.2 °F 94% 29.97 in 10.0 mi South 8.1 mph - N/A Rain Light Rain
3:10 AM 50.0 °F 48.2 °F 94% 29.98 in 10.0 mi South 6.9 mph - N/A Rain Light Rain
3:30 AM 50.0 °F 48.2 °F 94% 29.98 in 10.0 mi SSE 6.9 mph - N/A   Overcast
3:50 AM 50.0 °F 48.2 °F 94% 29.98 in 10.0 mi SSE 6.9 mph - N/A   Overcast
4:10 AM 50.0 °F 48.2 °F 94% 29.98 in 10.0 mi SE 5.8 mph - N/A   Partly Cloudy
4:30 AM 50.0 °F 48.2 °F 94% 29.98 in 10.0 mi SE 5.8 mph - N/A   Mostly Cloudy
4:50 AM 50.0 °F 48.2 °F 94% 29.99 in 10.0 mi SSE 9.2 mph - N/A   Partly Cloudy
5:10 AM 50.0 °F 48.2 °F 94% 30.00 in 10.0 mi SE 8.1 mph - N/A   Scattered Clouds
5:30 AM 50.0 °F 48.2 °F 94% 30.00 in 10.0 mi SSE 10.4 mph - N/A   Mostly Cloudy
5:50 AM 50.0 °F 48.2 °F 94% 30.01 in 10.0 mi SSE 8.1 mph - N/A   Scattered Clouds
6:10 AM 50.0 °F 48.2 °F 94% 30.02 in 10.0 mi SSE 9.2 mph - N/A Rain Light Rain
6:30 AM 50.0 °F 48.2 °F 94% 30.02 in 10.0 mi SSE 6.9 mph - N/A Rain Light Rain
6:50 AM 50.0 °F 48.2 °F 94% 30.03 in 10.0 mi South 4.6 mph - N/A   Clear
7:10 AM 50.0 °F 48.2 °F 94% 30.03 in 10.0 mi SSE 5.8 mph - N/A   Scattered Clouds
7:30 AM 50.0 °F 48.2 °F 94% 30.03 in 10.0 mi SSE 5.8 mph - N/A Rain Light Rain
7:50 AM 50.0 °F 48.2 °F 94% 30.04 in 10.0 mi SE 5.8 mph - N/A   Clear
8:10 AM 50.0 °F 48.2 °F 94% 30.04 in 10.0 mi SE 5.8 mph - N/A   Clear
8:30 AM 50.0 °F 48.2 °F 94% 30.05 in 10.0 mi SE 6.9 mph - N/A Rain Light Rain
8:50 AM 51.8 °F 48.2 °F 88% 30.06 in 10.0 mi SSE 10.4 mph - N/A Rain Light Rain
9:10 AM 53.6 °F 50.0 °F 88% 30.06 in 9.0 mi SSE 9.2 mph - N/A Rain Light Rain
9:30 AM 53.6 °F 48.2 °F 82% 30.07 in 10.0 mi SSE 8.1 mph - N/A Rain Light Rain
9:50 AM 53.6 °F 50.0 °F 88% 30.07 in 10.0 mi SE 8.1 mph - N/A   Clear
10:10 AM 55.4 °F 48.2 °F 77% 30.07 in 10.0 mi SSE 8.1 mph - N/A   Clear
10:30 AM 55.4 °F 48.2 °F 77% 30.07 in 10.0 mi South 8.1 mph - N/A   Clear
10:50 AM 55.4 °F 48.2 °F 77% 30.08 in 10.0 mi SSE 9.2 mph - N/A   Clear
11:10 AM 55.4 °F 46.4 °F 72% 30.08 in 10.0 mi South 6.9 mph - N/A Rain Light Rain
11:30 AM 55.4 °F 46.4 °F 72% 30.07 in 10.0 mi SSE 8.1 mph - N/A Rain Light Rain
11:50 AM 57.2 °F 44.6 °F 63% 30.07 in 10.0 mi South 9.2 mph - N/A Rain Light Rain
12:10 PM 57.2 °F 44.6 °F 63% 30.07 in 10.0 mi SSW 9.2 mph - N/A   Partly Cloudy
12:30 PM 57.2 °F 44.6 °F 63% 30.07 in 10.0 mi SSW 9.2 mph - N/A   Mostly Cloudy
12:50 PM 59.0 °F 44.6 °F 59% 30.06 in 10.0 mi South 10.4 mph - N/A Rain Light Rain
1:10 PM 59.0 °F 41.0 °F 51% 30.05 in 10.0 mi SSW 6.9 mph - N/A Rain Light Rain
1:30 PM 59.0 °F 39.2 °F 48% 30.05 in 10.0 mi SSW 3.5 mph - N/A Rain Light Rain
1:50 PM 60.8 °F 39.2 °F 45% 30.04 in 10.0 mi South 10.4 mph - N/A Rain Light Rain
2:10 PM 60.8 °F 39.2 °F 45% 30.04 in 10.0 mi SW 4.6 mph - N/A Rain Light Rain
2:30 PM 60.8 °F 37.4 °F 42% 30.04 in 10.0 mi South 6.9 mph - N/A   Partly Cloudy
2:50 PM 59.0 °F 37.4 °F 45% 30.03 in 10.0 mi South 5.8 mph - N/A Rain Light Rain
3:10 PM 62.6 °F 35.6 °F 37% 30.03 in 10.0 mi SW 5.8 mph - N/A   Mostly Cloudy
3:30 PM 60.8 °F 37.4 °F 42% 30.03 in 10.0 mi South 3.5 mph - N/A   Scattered Clouds
3:50 PM 60.8 °F 39.2 °F 45% 30.02 in 10.0 mi SSW 8.1 mph - N/A Rain Light Rain
4:10 PM 60.8 °F 39.2 °F 45% 30.02 in 10.0 mi SSE 8.1 mph - N/A Rain Light Rain
4:30 PM 60.8 °F 37.4 °F 42% 30.02 in 5.0 mi WSW 6.9 mph - N/A   Haze
4:50 PM 60.8 °F 37.4 °F 42% 30.01 in 10.0 mi South 8.1 mph - N/A   Clear
5:10 PM 59.0 °F 37.4 °F 45% 30.02 in 10.0 mi SSW 6.9 mph - N/A   Clear
5:30 PM 59.0 °F 37.4 °F 45% 30.01 in 10.0 mi South 5.8 mph - N/A Rain Light Rain
5:50 PM 59.0 °F 37.4 °F 45% 30.02 in 10.0 mi SSW 5.8 mph - N/A Rain Light Rain
6:10 PM 59.0 °F 37.4 °F 45% 30.02 in 10.0 mi SSW 5.8 mph - N/A Rain Light Rain
6:30 PM 57.2 °F 39.2 °F 51% 30.02 in 10.0 mi SSE 3.5 mph - N/A Rain Light Rain
6:50 PM 57.2 °F 39.2 °F 51% 30.01 in 10.0 mi SE 4.6 mph - N/A Rain Light Rain
7:10 PM 57.2 °F 39.2 °F 51% 30.02 in 10.0 mi SE 4.6 mph - N/A Rain Light Rain
7:30 PM 55.4 °F 39.2 °F 54% 30.02 in 10.0 mi SSE 5.8 mph - N/A Rain Light Rain
7:50 PM 55.4 °F 39.2 °F 54% 30.02 in 10.0 mi South 4.6 mph - N/A Rain Light Rain
8:10 PM 55.4 °F 39.2 °F 54% 30.02 in 10.0 mi South 4.6 mph - N/A Rain Light Rain
8:30 PM 55.4 °F 39.2 °F 54% 30.02 in 10.0 mi SSW 6.9 mph - N/A Rain Light Rain
8:50 PM 55.4 °F 39.2 °F 54% 30.02 in 10.0 mi SSW 6.9 mph - N/A Rain Light Rain
9:10 PM 55.4 °F 41.0 °F 58% 30.02 in 10.0 mi SSW 8.1 mph - N/A Rain Light Rain
9:30 PM 53.6 °F 41.0 °F 62% 30.02 in 10.0 mi South 6.9 mph - N/A Rain Light Rain
9:50 PM 50.0 °F 41.0 °F 71% 30.02 in 10.0 mi SSE 4.6 mph - N/A   Scattered Clouds
10:10 PM 51.8 °F 42.8 °F 71% 30.03 in 10.0 mi South 4.6 mph - N/A Rain Light Rain
10:30 PM 50.0 °F 42.8 °F 76% 30.03 in 10.0 mi SSE 5.8 mph - N/A   Mostly Cloudy
10:50 PM 50.0 °F 44.6 °F 82% 30.03 in 10.0 mi SSE 5.8 mph - N/A Rain Light Rain
11:10 PM 50.0 °F 44.6 °F 82% 30.04 in 10.0 mi South 3.5 mph - N/A Rain Light Rain
11:30 PM 50.0 °F 44.6 °F 82% 30.04 in 10.0 mi SE 5.8 mph - N/A   Overcast
11:50 PM 50.0 °F 44.6 °F 82% 30.04 in 10.0 mi SE 5.8 mph - N/A Rain Light Rain